Regional Weather Roundup
Issued by NWS

Home | Current Version | Previous Version | Graphics & Text | Print | Product List | Glossary On
Versions: 1 2 3 4 5 6 7 8 9 10 11 12 13 14 15 16 17 18 19 20 21 22 23 24 25 26 27 28 29 30 31 32 33 34 35 36 37 38 39 40 41 42 43 44 45 46 47 48 49 50
000
ASUS43 KMPX 141101
RWRMN
WEATHER ROUNDUP FOR MINNESOTA
NATIONAL WEATHER SERVICE TWIN CITIES/CHANHASSEN MN
600 AM CDT MON JUL 14 2014


NOTE: "FAIR" INDICATES FEW OR NO CLOUDS BELOW 12,000 FEET WITH NO
SIGNIFICANT WEATHER AND/OR OBSTRUCTIONS TO VISIBILITY. N/A MEANS
CURRENT SKY AND/OR WEATHER CONDITIONS ARE NOT AVAILABLE.

MNZ060>063-068>070-141200-
   Twin Cities Metro

CITY           SKY/WX    TMP DP  RH WIND       PRES   REMARKS
TWIN CITIES    CLOUDY    61  51  70 W10       29.89S
ST PAUL        CLOUDY    61  50  67 W9        29.89S
CRYSTAL        CLOUDY    61  51  70 W8        29.88S
BLAINE         CLOUDY    61  54  77 W5        29.89S
LAKEVILLE      CLOUDY    55  52  88 SW5       29.90S
EDEN PRAIRIE   CLOUDY    62  50  64 W12       29.89S
SOUTH ST PAUL  CLOUDY    61  51  70 W3        29.89S
LAKE ELMO      CLOUDY    57  54  88 CALM      29.89S
$$
MNZ001>005-007-008-013>017-022>024-027-028-141200-
   Northwest Minnesota

CITY           SKY/WX    TMP DP  RH WIND       PRES   REMARKS
BEMIDJI        CLOUDY    46  45  93 NW13      29.92S
HALLOCK        PTCLDY    46  45  93 NW16G22   30.05R
ROSEAU         CLOUDY    48  45  87 N17       29.97R
WARROAD        CLOUDY    48  45  87 NW14      29.96R
THIEF RVR FALL CLOUDY    50  46  87 NW15      30.00R
CROOKSTON      CLOUDY    48  48 100 N17       30.03R
FOSSTON        CLOUDY    46  45  93 NW14      29.98S
MOORHEAD       MOCLDY    52  48  87 N17G24    30.03R
PARK RAPIDS    MOCLDY    48  43  82 NW16G29   29.93R
$$
MNZ006-009>011-018-025>026-141200-
   North Central Minnesota

CITY           SKY/WX    TMP DP  RH WIND       PRES   REMARKS
BAUDETTE       LGT RAIN  53  51  93 N13       29.89R
FLAG ISLAND    CLOUDY    54  48  82 N23G30    29.92R
INTL FALLS     RAIN      50  49  96 NW12      29.83R
WASKISH        MOCLDY    50  48  93 CALM      29.90R
BIG FORK       CLOUDY    48  46  93 NW6       29.85R
LONGVILLE      CLOUDY    52  46  82 NW9       29.89R
GRAND RAPIDS   CLOUDY    48  43  81 NW12      29.85S
CRANE LAKE     RAIN      48  46  93 W3        29.80S
ORR            DRIZZLE   48  46  93 W5        29.78S
COOK           RAIN      48  46  93 W6        29.81S
$$
MNZ012-019>021-037-141200-
   Northeast Minnesota

CITY           SKY/WX    TMP DP  RH WIND       PRES   REMARKS
DULUTH         CLOUDY    51  48  89 NW12      29.82S
ELY            CLOUDY    48  46  93 CALM      29.79S
HIBBING        CLOUDY    50  45  83 W8        29.82S
EVELETH        CLOUDY    50  46  87 W6        29.83S
DULUTH HARBOR  DRIZZLE   54  52  94 NW10G18   29.83S
TWO HARBORS    CLOUDY    48  45  87 W5        29.79S
SILVER BAY     DRIZZLE   48  48 100 CALM      29.78S
GRAND MARAIS     N/A     42  41  96 CALM      29.79R
G MARAIS ARPRT LGT RAIN  48  45  87 CALM      29.80R
$$
MNZ029>031-032-039>041-046>048-054>057-064-141200-
   West Central Minnesota

CITY           SKY/WX    TMP DP  RH WIND       PRES   REMARKS
FERGUS FALLS   CLEAR     52  43  71 N20G26    30.00R
WHEATON        MOCLDY    55  46  71 NW18      30.03R
MORRIS         MOCLDY    57  48  72 NW16G22   29.98R
ALEXANDRIA     MOCLDY    54  50  86 NW13      29.97R
ELBOW LAKE     MOCLDY    54  48  82 NW13      29.98R
WADENA         CLOUDY    52  45  76 NW15G22   29.94S
GLENWOOD       PTCLDY    55  48  76 NW15      29.96R
APPLETON       CLEAR     57  46  67 NW13      29.99R
BENSON         MOCLDY    55  46  71 N9        29.98R
ORTONVILLE     MOCLDY    59  45  58 NW13G25   30.00S
MADISON        CLOUDY    61  52  72 NW12      30.00R
WILLMAR        FAIR      57  46  67 W9        29.98R
$$
MNZ033>034-036-042>043-049>051-058-059-141200-
   Central Minnesota

CITY           SKY/WX    TMP DP  RH WIND       PRES   REMARKS
ST CLOUD       CLOUDY    60  47  61 NW12G21   29.90S
SAUK CENTRE    CLOUDY    53  49  89 NW12      29.95R
PAYNESVILLE    MOCLDY    51  46  84 SW8       29.94S
AITKIN         PTCLDY    52  46  82 W5        29.87S
PINE RIVER     LGT RAIN  50  46  87 NW13G18   29.94R
BRAINERD       LGT RAIN  56  48  74 NW12      29.91R
STAPLES        MOCLDY    52  46  82 NW8       29.93R
LONG PRAIRIE   CLOUDY    52  45  76 W12G18    29.94S
LITTLE FALLS   MOCLDY    54  45  71 W9G16     29.92R
LITCHFIELD     PTCLDY    61  48  63 NW12G18   29.94S
BUFFALO        CLOUDY    59  49  68 W9        29.92R
MAPLE LAKE     MOCLDY    59  51  75 W5        29.92S
$$
MNZ037-044-045-052-053-141200-
   East Central Minnesota

CITY           SKY/WX    TMP DP  RH WIND       PRES   REMARKS
PRINCETON      PTCLDY    57  52  82 W8        29.89S
MORA           LGT RAIN  55  46  71 NW12      29.88S
CAMBRIDGE      PTCLDY    61  48  63 W8        29.86S
RUSH CITY      MOCLDY    56  49  79 W3        29.87S
MOOSE LAKE     CLOUDY    52  48  87 W3        29.84S
HINCKLEY       LGT RAIN  54  52  94 NW10G21   29.87R
CLOQUET        CLOUDY    50  46  87 W8        29.84S
MCGREGOR       MOCLDY    52  48  87 W7        29.87S
$$
MNZ071>073-080-081-089-090-097-098-141200-
   Southwest Minnesota

CITY           SKY/WX    TMP DP  RH WIND       PRES   REMARKS
MONTEVIDEO     CLOUDY    59  52  77 N12       29.99S
GRANITE FALLS  CLOUDY    57  51  79 W9        30.00R
CANBY          CLOUDY    59  49  69 NW8       30.02R
MARSHALL       CLOUDY    57  48  72 NW13      29.99R
REDWOOD FALLS  CLOUDY    57  51  80 NW9       29.96S
OLIVIA         CLOUDY    57  50  77 NW9       29.96R
PIPESTONE      CLEAR     54  48  82 NW8       30.02S
WINDOM         CLEAR     52  48  87 W6        29.98S
WORTHINGTON    CLEAR     52  48  87 NW8       30.01R
JACKSON        CLEAR     54  46  76 NW8       29.99R
TRACY          MOCLDY    57  50  77 W6        30.00R
SLAYTON        PTCLDY    52  49  89 CALM      30.01S
$$
MNZ065>067-074>077-082>085-091>093-141200-
   South Central Minnesota

CITY           SKY/WX    TMP DP  RH WIND       PRES   REMARKS
MANKATO        CLOUDY    57  48  72 W7        29.94S
NEW ULM        CLOUDY    57  52  82 NW12      29.95S
ST JAMES       MOCLDY    55  50  82 W6        29.97S
FAIRMONT       CLEAR     55  43  62 NW8       29.96S
GLENCOE        CLOUDY    62  48  60 W12       29.92S
FARIBAULT      CLOUDY    61  52  72 W6        29.92S
OWATONNA       MOCLDY    54  50  87 SW3       29.93S
WASECA         MOCLDY    50  46  87 W5        29.95S
ALBERT LEA     CLEAR     55  50  82 W6        29.94S
$$
MNZ078>079-086>088-094>096-141200-
   Southeast Minnesota

CITY           SKY/WX    TMP DP  RH WIND       PRES   REMARKS
ROCHESTER      CLEAR     52  48  86 W9        29.92R
RED WING       CLOUDY    54  52  94 CALM      29.88S
STANTON        MOCLDY    54  49  86 SW3       29.90S
DODGE CENTER   CLEAR     54  50  87 W6        29.92S
WINONA         CLEAR     55  52  88 NW5       29.88S
AUSTIN         MOCLDY    57  50  77 W7        29.92S
PRESTON        CLEAR     56  49  79 W8        29.91S
$$
ABBREVIATIONS USED IN REMARKS
   TC - TEMPERATURES IN CELSIUS
  WCI - WIND CHILL INDEX
   HX - HEAT INDEX
  VSB - VISIBILITY
$$


USA.gov is the U.S. government's official web portal to all federal, state and local government web resources and services.